GFSFLT2_prec_pwat_204.txt.gz
Precipitable_Water
0.59 0.52 0.51 0.51 0.53 0.52 0.51 0.43 0.37 0.36 0.34 0.31 0.33 0.36 0.39 0.39 0.40 0.43 0.43 0.44 0.42 0.40 0.40 0.40 0.39 0.39 0.40
0.51 0.47 0.44 0.44 0.43 0.43 0.39 0.34 0.31 0.31 0.30 0.31 0.33 0.40 0.38 0.39 0.42 0.43 0.42 0.39 0.37 0.37 0.37 0.36 0.37 0.38 0.38
0.44 0.48 0.46 0.40 0.37 0.34 0.30 0.31 0.30 0.29 0.30 0.31 0.34 0.38 0.37 0.37 0.39 0.39 0.39 0.37 0.36 0.36 0.36 0.36 0.36 0.36 0.38
0.44 0.39 0.34 0.34 0.31 0.28 0.26 0.27 0.26 0.29 0.31 0.32 0.33 0.34 0.36 0.38 0.38 0.36 0.37 0.36 0.35 0.35 0.34 0.35 0.33 0.32 0.32
0.34 0.32 0.27 0.25 0.24 0.26 0.24 0.26 0.28 0.32 0.32 0.35 0.36 0.35 0.35 0.36 0.36 0.34 0.34 0.33 0.32 0.32 0.33 0.32 0.33 0.32 0.31
0.25 0.24 0.26 0.27 0.27 0.27 0.29 0.30 0.30 0.39 0.35 0.32 0.35 0.35 0.34 0.32 0.31 0.30 0.30 0.30 0.30 0.31 0.32 0.32 0.31 0.29 0.28
0.29 0.27 0.28 0.33 0.33 0.33 0.33 0.32 0.32 0.34 0.36 0.31 0.32 0.29 0.29 0.28 0.27 0.29 0.29 0.29 0.30 0.29 0.28 0.26 0.26 0.27 0.27
0.36 0.38 0.38 0.38 0.37 0.38 0.38 0.38 0.36 0.36 0.34 0.27 0.29 0.25 0.26 0.25 0.26 0.27 0.27 0.26 0.25 0.25 0.25 0.25 0.26 0.26 0.26
0.41 0.42 0.41 0.41 0.42 0.39 0.38 0.35 0.32 0.31 0.34 0.29 0.27 0.24 0.22 0.22 0.24 0.25 0.25 0.23 0.23 0.24 0.23 0.24 0.24 0.24 0.24
0.43 0.44 0.45 0.45 0.44 0.41 0.37 0.33 0.32 0.29 0.31 0.27 0.26 0.25 0.20 0.21 0.22 0.22 0.22 0.22 0.22 0.21 0.22 0.22 0.23 0.22 0.21
0.44 0.43 0.45 0.42 0.40 0.39 0.39 0.36 0.31 0.29 0.31 0.31 0.27 0.26 0.24 0.20 0.19 0.20 0.20 0.20 0.19 0.19 0.20 0.20 0.20 0.22 0.20
0.44 0.41 0.39 0.39 0.40 0.40 0.39 0.38 0.36 0.32 0.32 0.31 0.27 0.25 0.22 0.19 0.16 0.17 0.19 0.19 0.20 0.19 0.20 0.21 0.21 0.20 0.21
0.38 0.39 0.40 0.40 0.41 0.39 0.39 0.38 0.35 0.33 0.32 0.30 0.28 0.25 0.23 0.18 0.16 0.16 0.16 0.17 0.19 0.20 0.21 0.20 0.19 0.19 0.18
0.36 0.37 0.39 0.39 0.39 0.40 0.37 0.36 0.33 0.29 0.29 0.28 0.27 0.26 0.20 0.19 0.18 0.16 0.18 0.17 0.19 0.20 0.20 0.21 0.22 0.21 0.20
0.34 0.35 0.38 0.39 0.39 0.40 0.38 0.36 0.32 0.29 0.25 0.24 0.24 0.23 0.21 0.20 0.16 0.17 0.18 0.18 0.20 0.20 0.21 0.19 0.21 0.21 0.20
0.36 0.38 0.37 0.38 0.38 0.38 0.37 0.34 0.30 0.27 0.23 0.20 0.18 0.18 0.18 0.18 0.20 0.17 0.19 0.19 0.21 0.20 0.20 0.18 0.16 0.19 0.20
0.36 0.36 0.37 0.38 0.37 0.35 0.34 0.32 0.29 0.25 0.21 0.18 0.17 0.17 0.14 0.12 0.16 0.21 0.19 0.20 0.20 0.19 0.19 0.18 0.17 0.18 0.20

GFSFLT2_prec_pwat_207.txt.gz
Precipitable_Water
0.62 0.61 0.60 0.58 0.58 0.58 0.58 0.55 0.53 0.49 0.42 0.36 0.34 0.34 0.36 0.37 0.37 0.38 0.40 0.41 0.43 0.43 0.43 0.43 0.42 0.43 0.43
0.64 0.59 0.57 0.55 0.53 0.50 0.48 0.45 0.41 0.35 0.31 0.33 0.32 0.33 0.36 0.38 0.39 0.39 0.40 0.41 0.39 0.38 0.39 0.39 0.40 0.41 0.43
0.64 0.58 0.51 0.52 0.47 0.45 0.41 0.35 0.30 0.31 0.32 0.32 0.32 0.35 0.36 0.37 0.38 0.39 0.38 0.36 0.36 0.37 0.39 0.39 0.40 0.40 0.38
0.58 0.50 0.48 0.47 0.42 0.36 0.30 0.29 0.28 0.29 0.32 0.35 0.33 0.33 0.33 0.35 0.37 0.36 0.36 0.37 0.40 0.40 0.38 0.38 0.37 0.37 0.37
0.53 0.51 0.44 0.34 0.28 0.26 0.25 0.26 0.27 0.29 0.30 0.30 0.29 0.30 0.33 0.35 0.36 0.38 0.40 0.39 0.38 0.36 0.36 0.37 0.36 0.36 0.35
0.47 0.38 0.32 0.29 0.30 0.27 0.25 0.25 0.22 0.32 0.28 0.26 0.30 0.33 0.36 0.34 0.34 0.35 0.35 0.35 0.33 0.33 0.33 0.32 0.32 0.32 0.32
0.26 0.26 0.28 0.28 0.29 0.29 0.28 0.26 0.26 0.31 0.33 0.31 0.36 0.33 0.34 0.32 0.31 0.31 0.32 0.31 0.30 0.30 0.30 0.30 0.31 0.31 0.30
0.30 0.31 0.31 0.33 0.34 0.34 0.33 0.34 0.37 0.41 0.43 0.36 0.34 0.30 0.31 0.29 0.28 0.30 0.29 0.29 0.28 0.29 0.29 0.29 0.28 0.27 0.26
0.39 0.39 0.40 0.42 0.43 0.43 0.42 0.42 0.39 0.36 0.36 0.33 0.32 0.29 0.27 0.26 0.27 0.29 0.28 0.28 0.27 0.27 0.26 0.26 0.25 0.24 0.23
0.40 0.43 0.43 0.48 0.49 0.46 0.41 0.35 0.33 0.33 0.36 0.32 0.30 0.30 0.26 0.27 0.26 0.26 0.26 0.26 0.25 0.24 0.24 0.23 0.23 0.22 0.21
0.42 0.45 0.48 0.43 0.41 0.42 0.42 0.40 0.35 0.32 0.36 0.36 0.33 0.32 0.30 0.27 0.25 0.26 0.25 0.23 0.22 0.22 0.21 0.21 0.22 0.23 0.21
0.45 0.41 0.40 0.41 0.42 0.41 0.41 0.41 0.40 0.38 0.39 0.38 0.34 0.31 0.29 0.26 0.24 0.24 0.24 0.22 0.20 0.19 0.20 0.21 0.21 0.21 0.22
0.39 0.38 0.37 0.39 0.40 0.40 0.41 0.42 0.42 0.41 0.40 0.38 0.34 0.32 0.30 0.26 0.24 0.22 0.20 0.17 0.19 0.19 0.19 0.19 0.19 0.19 0.18
0.34 0.35 0.37 0.38 0.38 0.40 0.39 0.40 0.38 0.37 0.39 0.38 0.35 0.32 0.27 0.25 0.23 0.19 0.19 0.16 0.18 0.19 0.19 0.19 0.20 0.20 0.19
0.33 0.33 0.35 0.37 0.38 0.40 0.39 0.39 0.36 0.35 0.34 0.35 0.34 0.31 0.26 0.22 0.18 0.18 0.17 0.16 0.18 0.19 0.19 0.18 0.18 0.19 0.19
0.32 0.34 0.35 0.35 0.35 0.37 0.38 0.35 0.33 0.32 0.31 0.31 0.29 0.25 0.20 0.18 0.20 0.17 0.17 0.17 0.18 0.19 0.20 0.17 0.16 0.18 0.19
0.30 0.31 0.32 0.32 0.34 0.35 0.35 0.32 0.29 0.29 0.29 0.28 0.24 0.19 0.13 0.11 0.15 0.19 0.16 0.18 0.19 0.18 0.18 0.17 0.16 0.17 0.19

GFSFLT2_prec_pwat_213.txt.gz
Precipitable_Water
0.85 0.89 0.89 0.89 0.89 0.85 0.77 0.73 0.71 0.69 0.67 0.66 0.65 0.61 0.55 0.50 0.46 0.42 0.42 0.45 0.45 0.44 0.45 0.43 0.43 0.46 0.49
0.78 0.82 0.83 0.84 0.80 0.74 0.70 0.66 0.62 0.59 0.57 0.57 0.56 0.54 0.48 0.46 0.43 0.41 0.40 0.39 0.40 0.41 0.42 0.42 0.44 0.46 0.48
0.71 0.74 0.74 0.76 0.70 0.68 0.66 0.63 0.60 0.55 0.52 0.51 0.48 0.41 0.36 0.36 0.37 0.34 0.34 0.35 0.35 0.36 0.40 0.43 0.45 0.46 0.46
0.71 0.72 0.74 0.73 0.70 0.65 0.60 0.57 0.53 0.50 0.46 0.39 0.33 0.32 0.31 0.31 0.30 0.31 0.31 0.34 0.37 0.39 0.41 0.41 0.40 0.41 0.42
0.72 0.72 0.70 0.67 0.62 0.58 0.54 0.51 0.46 0.40 0.33 0.31 0.29 0.27 0.25 0.26 0.28 0.30 0.32 0.36 0.37 0.36 0.39 0.39 0.40 0.39 0.38
0.69 0.67 0.67 0.66 0.60 0.56 0.48 0.37 0.27 0.33 0.29 0.27 0.28 0.25 0.27 0.31 0.36 0.38 0.38 0.37 0.36 0.39 0.39 0.38 0.37 0.36 0.36
0.67 0.63 0.58 0.56 0.53 0.40 0.32 0.28 0.27 0.30 0.29 0.28 0.35 0.35 0.36 0.35 0.35 0.35 0.36 0.37 0.40 0.39 0.37 0.37 0.37 0.37 0.36
0.57 0.53 0.46 0.39 0.34 0.30 0.29 0.29 0.31 0.35 0.37 0.32 0.34 0.31 0.32 0.34 0.37 0.37 0.38 0.39 0.38 0.36 0.36 0.37 0.37 0.36 0.35
0.38 0.35 0.34 0.33 0.32 0.34 0.35 0.34 0.31 0.33 0.37 0.35 0.35 0.34 0.35 0.35 0.36 0.39 0.40 0.39 0.38 0.35 0.36 0.36 0.35 0.35 0.35
0.36 0.38 0.42 0.45 0.44 0.39 0.38 0.36 0.35 0.34 0.37 0.36 0.36 0.36 0.34 0.38 0.37 0.37 0.36 0.36 0.35 0.35 0.35 0.35 0.35 0.33 0.31
0.40 0.43 0.39 0.38 0.39 0.39 0.39 0.37 0.36 0.36 0.40 0.39 0.37 0.37 0.36 0.35 0.38 0.38 0.39 0.37 0.35 0.33 0.32 0.32 0.31 0.31 0.29
0.39 0.39 0.40 0.39 0.39 0.39 0.40 0.40 0.41 0.38 0.40 0.40 0.37 0.36 0.35 0.35 0.34 0.37 0.36 0.36 0.35 0.34 0.31 0.30 0.29 0.26 0.25
0.40 0.40 0.38 0.38 0.38 0.39 0.40 0.41 0.40 0.40 0.41 0.41 0.39 0.39 0.37 0.34 0.32 0.34 0.33 0.33 0.32 0.28 0.25 0.24 0.22 0.21 0.19
0.36 0.35 0.37 0.37 0.36 0.36 0.35 0.36 0.35 0.35 0.39 0.40 0.39 0.37 0.32 0.31 0.31 0.29 0.28 0.24 0.23 0.22 0.22 0.20 0.20 0.20 0.19
0.34 0.33 0.34 0.34 0.34 0.34 0.32 0.30 0.30 0.32 0.33 0.35 0.36 0.34 0.32 0.30 0.26 0.26 0.24 0.20 0.18 0.18 0.17 0.16 0.17 0.18 0.18
0.31 0.29 0.28 0.28 0.25 0.25 0.26 0.27 0.29 0.30 0.30 0.32 0.32 0.30 0.28 0.27 0.27 0.23 0.20 0.16 0.18 0.18 0.19 0.16 0.15 0.17 0.18
0.26 0.25 0.25 0.24 0.24 0.23 0.25 0.27 0.27 0.27 0.29 0.32 0.30 0.27 0.23 0.19 0.20 0.22 0.17 0.17 0.17 0.17 0.18 0.17 0.15 0.16 0.18

GFSFLT2_prec_pwat_216.txt.gz
Precipitable_Water
0.84 0.86 0.89 0.89 0.90 0.93 0.93 0.90 0.90 0.87 0.78 0.73 0.70 0.67 0.66 0.64 0.62 0.60 0.54 0.49 0.46 0.46 0.47 0.46 0.45 0.47 0.47
0.79 0.82 0.82 0.86 0.87 0.87 0.86 0.85 0.81 0.76 0.73 0.68 0.65 0.62 0.60 0.58 0.57 0.54 0.47 0.44 0.43 0.42 0.40 0.41 0.41 0.43 0.46
0.71 0.76 0.78 0.78 0.81 0.80 0.79 0.75 0.71 0.69 0.66 0.63 0.60 0.57 0.55 0.50 0.45 0.41 0.39 0.36 0.35 0.35 0.34 0.37 0.40 0.41 0.43
0.69 0.72 0.74 0.76 0.76 0.71 0.69 0.71 0.68 0.66 0.62 0.59 0.57 0.53 0.44 0.39 0.38 0.36 0.34 0.33 0.32 0.33 0.35 0.37 0.40 0.41 0.43
0.69 0.70 0.68 0.68 0.68 0.70 0.66 0.67 0.62 0.57 0.53 0.48 0.40 0.34 0.33 0.31 0.30 0.30 0.31 0.34 0.36 0.38 0.39 0.39 0.41 0.42 0.41
0.70 0.64 0.69 0.71 0.71 0.69 0.64 0.58 0.52 0.53 0.39 0.31 0.32 0.29 0.29 0.28 0.33 0.37 0.39 0.37 0.37 0.38 0.39 0.42 0.41 0.40 0.39
0.72 0.72 0.70 0.71 0.69 0.61 0.56 0.49 0.38 0.34 0.32 0.28 0.31 0.31 0.35 0.36 0.37 0.36 0.37 0.39 0.39 0.39 0.41 0.39 0.37 0.37 0.39
0.74 0.71 0.67 0.63 0.58 0.49 0.40 0.33 0.32 0.32 0.35 0.32 0.35 0.31 0.32 0.34 0.36 0.36 0.35 0.36 0.39 0.41 0.41 0.39 0.39 0.39 0.39
0.63 0.59 0.52 0.45 0.39 0.32 0.29 0.32 0.33 0.33 0.38 0.35 0.35 0.35 0.36 0.36 0.37 0.38 0.40 0.42 0.42 0.42 0.42 0.40 0.40 0.40 0.40
0.39 0.37 0.36 0.37 0.39 0.39 0.37 0.35 0.35 0.33 0.37 0.35 0.36 0.35 0.32 0.37 0.37 0.39 0.38 0.39 0.40 0.41 0.40 0.39 0.39 0.38 0.36
0.37 0.41 0.42 0.40 0.39 0.39 0.38 0.36 0.34 0.33 0.38 0.36 0.35 0.36 0.35 0.34 0.37 0.38 0.38 0.38 0.38 0.38 0.37 0.36 0.36 0.36 0.33
0.39 0.38 0.39 0.40 0.41 0.41 0.39 0.39 0.40 0.38 0.40 0.39 0.34 0.34 0.34 0.34 0.33 0.36 0.36 0.36 0.36 0.34 0.33 0.32 0.30 0.28 0.27
0.39 0.41 0.40 0.40 0.39 0.38 0.40 0.39 0.38 0.39 0.39 0.39 0.37 0.36 0.35 0.33 0.31 0.32 0.31 0.32 0.32 0.29 0.28 0.26 0.24 0.22 0.19
0.38 0.36 0.37 0.36 0.36 0.36 0.34 0.34 0.31 0.30 0.34 0.36 0.36 0.35 0.32 0.32 0.31 0.29 0.29 0.25 0.27 0.26 0.24 0.22 0.20 0.19 0.18
0.34 0.32 0.32 0.31 0.30 0.30 0.28 0.26 0.23 0.23 0.26 0.31 0.34 0.34 0.33 0.31 0.28 0.28 0.27 0.25 0.24 0.21 0.18 0.16 0.17 0.18 0.18
0.31 0.29 0.26 0.25 0.24 0.26 0.27 0.25 0.23 0.23 0.24 0.28 0.29 0.29 0.29 0.28 0.28 0.23 0.23 0.21 0.20 0.18 0.18 0.16 0.14 0.17 0.18
0.26 0.25 0.26 0.26 0.26 0.25 0.24 0.24 0.22 0.23 0.25 0.28 0.28 0.26 0.21 0.18 0.22 0.26 0.21 0.19 0.17 0.16 0.17 0.17 0.16 0.16 0.18

GFSFLT2_prec_pwat_219.txt.gz
Precipitable_Water
0.76 0.75 0.72 0.82 0.84 0.88 0.91 0.93 0.95 0.95 0.93 0.89 0.89 0.88 0.80 0.71 0.68 0.66 0.67 0.67 0.63 0.58 0.54 0.53 0.51 0.51 0.49
0.76 0.75 0.71 0.79 0.86 0.89 0.86 0.89 0.89 0.89 0.87 0.87 0.84 0.78 0.73 0.69 0.66 0.63 0.62 0.58 0.53 0.48 0.46 0.46 0.47 0.46 0.45
0.79 0.77 0.75 0.79 0.76 0.81 0.82 0.83 0.84 0.83 0.84 0.80 0.77 0.74 0.69 0.66 0.62 0.60 0.57 0.48 0.42 0.40 0.38 0.36 0.36 0.38 0.40
0.77 0.75 0.75 0.77 0.76 0.74 0.74 0.74 0.74 0.74 0.74 0.73 0.72 0.69 0.66 0.61 0.56 0.48 0.44 0.41 0.39 0.38 0.37 0.37 0.39 0.40 0.41
0.75 0.73 0.71 0.70 0.68 0.72 0.69 0.69 0.70 0.72 0.70 0.69 0.62 0.56 0.52 0.42 0.38 0.37 0.36 0.36 0.35 0.37 0.41 0.43 0.42 0.41 0.41
0.73 0.70 0.70 0.71 0.72 0.69 0.66 0.64 0.61 0.71 0.63 0.55 0.50 0.38 0.36 0.34 0.32 0.31 0.35 0.38 0.40 0.39 0.41 0.42 0.44 0.44 0.43
0.72 0.71 0.68 0.71 0.71 0.68 0.66 0.65 0.62 0.61 0.48 0.37 0.34 0.31 0.33 0.35 0.39 0.40 0.39 0.38 0.38 0.39 0.39 0.40 0.41 0.41 0.40
0.76 0.75 0.75 0.75 0.74 0.70 0.65 0.57 0.47 0.38 0.34 0.29 0.35 0.35 0.37 0.37 0.38 0.38 0.39 0.39 0.39 0.41 0.43 0.43 0.42 0.42 0.42
0.75 0.73 0.70 0.67 0.61 0.50 0.39 0.32 0.30 0.33 0.38 0.36 0.36 0.36 0.38 0.39 0.40 0.39 0.40 0.42 0.42 0.43 0.44 0.44 0.43 0.43 0.43
0.55 0.50 0.45 0.41 0.37 0.37 0.37 0.35 0.36 0.36 0.39 0.36 0.35 0.34 0.32 0.35 0.35 0.37 0.37 0.39 0.40 0.40 0.41 0.41 0.41 0.40 0.38
0.36 0.37 0.40 0.42 0.42 0.41 0.40 0.37 0.35 0.35 0.38 0.37 0.36 0.36 0.34 0.33 0.35 0.37 0.38 0.38 0.38 0.38 0.38 0.38 0.37 0.36 0.33
0.40 0.38 0.38 0.39 0.41 0.42 0.41 0.40 0.40 0.38 0.40 0.39 0.36 0.35 0.33 0.32 0.32 0.36 0.36 0.37 0.37 0.35 0.34 0.33 0.32 0.31 0.30
0.39 0.41 0.41 0.41 0.41 0.39 0.39 0.40 0.39 0.38 0.37 0.37 0.35 0.34 0.33 0.31 0.31 0.31 0.31 0.32 0.33 0.32 0.31 0.29 0.27 0.26 0.23
0.38 0.37 0.38 0.37 0.35 0.36 0.33 0.31 0.29 0.28 0.30 0.31 0.31 0.31 0.28 0.30 0.30 0.29 0.30 0.26 0.27 0.26 0.24 0.23 0.22 0.21 0.19
0.31 0.29 0.29 0.30 0.29 0.30 0.28 0.27 0.24 0.24 0.24 0.26 0.28 0.29 0.29 0.30 0.26 0.27 0.25 0.23 0.24 0.22 0.21 0.18 0.18 0.18 0.18
0.30 0.29 0.27 0.26 0.25 0.26 0.27 0.25 0.24 0.24 0.24 0.25 0.26 0.26 0.26 0.27 0.28 0.24 0.23 0.22 0.23 0.21 0.19 0.16 0.15 0.17 0.18
0.26 0.25 0.25 0.25 0.24 0.24 0.24 0.25 0.24 0.25 0.26 0.27 0.25 0.23 0.20 0.18 0.23 0.27 0.23 0.22 0.20 0.18 0.19 0.18 0.17 0.18 0.19

GFSFLT2_prec_pwat_222.txt.gz
Precipitable_Water
0.83 0.82 0.80 0.80 0.83 0.85 0.87 0.85 0.87 0.92 0.96 0.97 0.95 0.94 0.93 0.92 0.90 0.85 0.78 0.72 0.72 0.72 0.70 0.68 0.64 0.62 0.59
0.78 0.80 0.80 0.83 0.81 0.78 0.79 0.85 0.87 0.89 0.90 0.89 0.89 0.88 0.87 0.84 0.79 0.74 0.72 0.69 0.67 0.64 0.61 0.58 0.54 0.52 0.50
0.78 0.84 0.83 0.86 0.79 0.77 0.76 0.78 0.83 0.87 0.88 0.89 0.87 0.84 0.81 0.78 0.77 0.75 0.72 0.69 0.65 0.61 0.53 0.47 0.44 0.41 0.41
0.81 0.81 0.81 0.83 0.82 0.75 0.72 0.76 0.75 0.78 0.81 0.80 0.80 0.80 0.80 0.79 0.76 0.73 0.68 0.64 0.57 0.49 0.45 0.42 0.41 0.39 0.40
0.74 0.76 0.75 0.75 0.72 0.75 0.72 0.73 0.73 0.75 0.72 0.71 0.73 0.73 0.73 0.71 0.67 0.60 0.51 0.47 0.44 0.41 0.40 0.40 0.42 0.44 0.44
0.74 0.72 0.73 0.74 0.74 0.72 0.71 0.65 0.61 0.73 0.70 0.68 0.68 0.63 0.61 0.53 0.45 0.41 0.38 0.36 0.38 0.39 0.41 0.44 0.44 0.43 0.45
0.73 0.74 0.73 0.74 0.72 0.69 0.68 0.65 0.64 0.67 0.67 0.61 0.64 0.53 0.46 0.40 0.38 0.38 0.40 0.41 0.42 0.43 0.43 0.43 0.43 0.44 0.44
0.76 0.75 0.75 0.75 0.73 0.71 0.68 0.65 0.65 0.62 0.54 0.40 0.39 0.36 0.38 0.39 0.39 0.40 0.42 0.42 0.42 0.43 0.44 0.45 0.45 0.45 0.45
0.78 0.77 0.76 0.75 0.73 0.68 0.62 0.56 0.43 0.37 0.38 0.37 0.38 0.38 0.40 0.40 0.40 0.39 0.40 0.43 0.43 0.44 0.44 0.44 0.44 0.43 0.43
0.63 0.62 0.61 0.59 0.55 0.49 0.45 0.36 0.35 0.37 0.40 0.39 0.38 0.38 0.36 0.37 0.36 0.36 0.37 0.39 0.40 0.41 0.41 0.41 0.40 0.40 0.40
0.39 0.38 0.38 0.39 0.41 0.43 0.43 0.42 0.39 0.38 0.39 0.39 0.37 0.36 0.36 0.35 0.37 0.37 0.37 0.39 0.39 0.39 0.39 0.39 0.39 0.38 0.36
0.40 0.40 0.40 0.40 0.41 0.42 0.42 0.41 0.40 0.39 0.41 0.40 0.37 0.36 0.34 0.33 0.31 0.33 0.34 0.37 0.38 0.37 0.37 0.36 0.35 0.34 0.33
0.38 0.40 0.40 0.40 0.41 0.41 0.40 0.40 0.40 0.39 0.38 0.36 0.33 0.32 0.31 0.28 0.28 0.28 0.30 0.32 0.34 0.32 0.31 0.30 0.28 0.27 0.23
0.38 0.37 0.37 0.36 0.34 0.34 0.31 0.31 0.29 0.29 0.31 0.31 0.30 0.29 0.27 0.27 0.27 0.25 0.29 0.28 0.29 0.28 0.26 0.25 0.24 0.23 0.21
0.29 0.28 0.29 0.30 0.30 0.31 0.29 0.27 0.24 0.24 0.25 0.28 0.29 0.29 0.29 0.27 0.25 0.26 0.25 0.25 0.26 0.26 0.24 0.21 0.21 0.20 0.19
0.30 0.29 0.27 0.26 0.26 0.26 0.26 0.24 0.23 0.24 0.26 0.28 0.27 0.27 0.27 0.27 0.29 0.25 0.25 0.24 0.25 0.24 0.23 0.19 0.17 0.19 0.20
0.27 0.26 0.26 0.26 0.26 0.26 0.27 0.27 0.27 0.27 0.28 0.29 0.28 0.25 0.21 0.19 0.24 0.29 0.23 0.23 0.23 0.20 0.21 0.19 0.18 0.18 0.20

GFSFLT2_prec_pwat_228.txt.gz
Precipitable_Water
0.71 0.77 0.83 0.89 0.93 0.96 0.97 0.97 0.95 0.94 0.93 0.92 1.01 1.00 0.95 1.01 1.05 1.08 1.09 1.06 1.01 0.96 0.91 0.87 0.83 0.80 0.78
0.73 0.73 0.74 0.80 0.85 0.90 0.92 0.98 0.98 0.94 0.92 0.89 0.88 0.91 0.91 0.91 0.94 0.95 0.96 0.98 0.97 0.93 0.88 0.86 0.81 0.76 0.74
0.72 0.77 0.77 0.80 0.77 0.84 0.82 0.87 0.92 0.91 0.90 0.88 0.85 0.84 0.85 0.85 0.86 0.83 0.85 0.85 0.84 0.82 0.79 0.76 0.74 0.74 0.71
0.75 0.74 0.76 0.77 0.76 0.71 0.74 0.80 0.81 0.86 0.87 0.85 0.83 0.83 0.81 0.80 0.80 0.80 0.80 0.80 0.78 0.78 0.76 0.74 0.72 0.67 0.65
0.71 0.72 0.73 0.72 0.71 0.73 0.72 0.74 0.76 0.80 0.79 0.80 0.80 0.80 0.82 0.83 0.81 0.80 0.78 0.77 0.76 0.75 0.72 0.67 0.62 0.57 0.52
0.72 0.69 0.71 0.73 0.74 0.72 0.70 0.67 0.64 0.76 0.74 0.72 0.76 0.75 0.76 0.79 0.80 0.78 0.75 0.71 0.64 0.59 0.54 0.50 0.47 0.46 0.46
0.71 0.71 0.71 0.72 0.73 0.70 0.69 0.67 0.65 0.71 0.71 0.66 0.72 0.70 0.73 0.72 0.70 0.65 0.59 0.54 0.50 0.47 0.47 0.47 0.47 0.47 0.49
0.73 0.73 0.74 0.75 0.73 0.70 0.69 0.68 0.68 0.69 0.70 0.60 0.66 0.61 0.57 0.51 0.48 0.46 0.45 0.45 0.47 0.48 0.49 0.50 0.50 0.51 0.50
0.73 0.74 0.73 0.72 0.71 0.68 0.63 0.60 0.58 0.58 0.52 0.44 0.43 0.46 0.48 0.47 0.49 0.49 0.48 0.47 0.46 0.46 0.45 0.46 0.47 0.47 0.47
0.56 0.58 0.60 0.59 0.61 0.63 0.57 0.44 0.44 0.41 0.45 0.44 0.46 0.47 0.42 0.43 0.42 0.41 0.41 0.44 0.43 0.43 0.43 0.43 0.42 0.41 0.39
0.39 0.39 0.40 0.42 0.44 0.44 0.41 0.39 0.38 0.38 0.41 0.40 0.37 0.37 0.37 0.36 0.38 0.38 0.38 0.38 0.37 0.36 0.36 0.36 0.37 0.38 0.36
0.40 0.39 0.39 0.39 0.39 0.40 0.40 0.41 0.41 0.39 0.40 0.39 0.36 0.35 0.33 0.30 0.27 0.29 0.29 0.29 0.29 0.28 0.29 0.31 0.32 0.34 0.35
0.35 0.35 0.36 0.37 0.37 0.35 0.35 0.34 0.32 0.31 0.31 0.30 0.28 0.27 0.26 0.24 0.23 0.25 0.26 0.27 0.28 0.28 0.30 0.30 0.30 0.30 0.27
0.28 0.28 0.29 0.29 0.28 0.29 0.27 0.27 0.26 0.27 0.31 0.31 0.30 0.28 0.25 0.26 0.27 0.25 0.27 0.25 0.27 0.28 0.28 0.28 0.28 0.27 0.24
0.27 0.26 0.26 0.26 0.27 0.28 0.28 0.27 0.25 0.25 0.26 0.30 0.32 0.32 0.31 0.29 0.24 0.24 0.23 0.23 0.25 0.25 0.24 0.22 0.23 0.22 0.21
0.27 0.28 0.27 0.26 0.26 0.27 0.27 0.25 0.24 0.24 0.24 0.25 0.24 0.22 0.21 0.21 0.23 0.20 0.21 0.21 0.22 0.23 0.22 0.20 0.18 0.19 0.20
0.28 0.25 0.22 0.21 0.20 0.19 0.18 0.18 0.17 0.18 0.18 0.20 0.20 0.19 0.15 0.13 0.18 0.23 0.19 0.18 0.18 0.18 0.19 0.19 0.18 0.19 0.21

GFSFLT2_prec_pwat_231.txt.gz
Precipitable_Water
0.69 0.74 0.74 0.75 0.77 0.83 0.85 0.90 0.93 0.97 1.00 1.01 1.02 1.01 1.00 0.99 1.00 1.01 1.03 1.07 1.14 1.13 1.10 1.07 1.01 0.97 0.92
0.66 0.69 0.71 0.76 0.78 0.76 0.78 0.83 0.85 0.93 0.97 0.99 0.98 0.98 0.96 0.98 0.98 0.96 0.94 0.96 0.98 1.00 0.98 0.99 0.97 0.93 0.88
0.60 0.67 0.72 0.77 0.75 0.78 0.77 0.78 0.82 0.89 0.90 0.95 0.98 0.97 0.92 0.89 0.88 0.89 0.89 0.89 0.91 0.92 0.90 0.89 0.89 0.88 0.84
0.66 0.68 0.69 0.74 0.74 0.73 0.71 0.76 0.74 0.79 0.86 0.87 0.88 0.90 0.89 0.85 0.83 0.82 0.85 0.83 0.84 0.83 0.80 0.80 0.79 0.77 0.75
0.64 0.65 0.68 0.69 0.68 0.72 0.71 0.72 0.73 0.73 0.76 0.78 0.80 0.81 0.84 0.85 0.84 0.82 0.80 0.80 0.79 0.79 0.80 0.79 0.76 0.73 0.67
0.63 0.63 0.67 0.68 0.70 0.70 0.68 0.65 0.61 0.73 0.70 0.71 0.75 0.74 0.77 0.80 0.81 0.80 0.79 0.78 0.76 0.76 0.75 0.71 0.65 0.60 0.56
0.62 0.64 0.65 0.69 0.69 0.65 0.65 0.65 0.63 0.67 0.68 0.64 0.70 0.68 0.73 0.74 0.75 0.74 0.73 0.71 0.67 0.64 0.61 0.58 0.56 0.53 0.52
0.67 0.67 0.69 0.71 0.69 0.67 0.65 0.64 0.65 0.66 0.67 0.58 0.65 0.63 0.65 0.61 0.57 0.53 0.51 0.49 0.48 0.49 0.49 0.50 0.51 0.52 0.52
0.65 0.67 0.66 0.65 0.65 0.64 0.59 0.57 0.55 0.54 0.53 0.49 0.50 0.50 0.51 0.50 0.52 0.52 0.52 0.52 0.52 0.51 0.50 0.48 0.48 0.47 0.47
0.47 0.48 0.49 0.51 0.53 0.52 0.44 0.39 0.41 0.39 0.45 0.43 0.45 0.45 0.41 0.45 0.45 0.44 0.43 0.44 0.45 0.45 0.45 0.45 0.45 0.42 0.39
0.39 0.39 0.40 0.40 0.40 0.40 0.40 0.39 0.36 0.36 0.40 0.39 0.36 0.36 0.36 0.36 0.38 0.38 0.39 0.38 0.38 0.37 0.37 0.37 0.36 0.36 0.35
0.36 0.36 0.36 0.37 0.38 0.38 0.38 0.37 0.36 0.33 0.34 0.33 0.29 0.29 0.27 0.25 0.24 0.28 0.28 0.29 0.29 0.28 0.29 0.29 0.30 0.31 0.31
0.30 0.28 0.28 0.28 0.28 0.28 0.28 0.29 0.29 0.29 0.29 0.28 0.26 0.26 0.25 0.23 0.23 0.24 0.25 0.27 0.30 0.29 0.29 0.29 0.30 0.30 0.28
0.27 0.28 0.29 0.27 0.26 0.27 0.26 0.26 0.25 0.26 0.30 0.31 0.31 0.29 0.27 0.28 0.28 0.26 0.27 0.24 0.27 0.26 0.26 0.26 0.26 0.26 0.24
0.26 0.26 0.26 0.27 0.26 0.27 0.26 0.24 0.22 0.22 0.23 0.27 0.28 0.27 0.25 0.22 0.18 0.19 0.19 0.20 0.22 0.21 0.21 0.19 0.19 0.19 0.20
0.28 0.26 0.22 0.20 0.18 0.18 0.18 0.16 0.15 0.15 0.16 0.18 0.18 0.16 0.16 0.17 0.21 0.18 0.18 0.18 0.18 0.18 0.18 0.17 0.16 0.18 0.20
0.19 0.17 0.16 0.16 0.15 0.14 0.15 0.15 0.15 0.15 0.15 0.16 0.16 0.15 0.12 0.11 0.16 0.21 0.17 0.17 0.18 0.17 0.19 0.19 0.18 0.18 0.20

GFSFLT2_prec_pwat_237.txt.gz
Precipitable_Water
0.60 0.64 0.62 0.63 0.67 0.72 0.74 0.72 0.71 0.72 0.73 0.73 0.72 0.73 0.75 0.82 0.89 0.92 0.95 0.95 0.92 0.91 0.93 1.06 1.05 1.19 1.17
0.57 0.58 0.61 0.63 0.64 0.64 0.67 0.70 0.69 0.71 0.73 0.73 0.73 0.74 0.73 0.75 0.80 0.84 0.90 0.97 0.95 0.97 0.97 1.06 1.14 1.13 1.07
0.59 0.64 0.64 0.65 0.63 0.66 0.66 0.68 0.68 0.72 0.72 0.74 0.74 0.74 0.74 0.74 0.77 0.83 0.87 0.92 0.92 0.95 0.96 0.99 1.02 1.09 1.09
0.58 0.59 0.61 0.64 0.63 0.59 0.61 0.65 0.64 0.69 0.70 0.71 0.72 0.72 0.73 0.74 0.76 0.80 0.83 0.89 0.88 0.90 0.90 0.93 0.93 0.92 0.96
0.57 0.57 0.56 0.56 0.55 0.60 0.58 0.60 0.62 0.65 0.64 0.65 0.65 0.65 0.69 0.73 0.74 0.77 0.79 0.82 0.84 0.84 0.84 0.85 0.86 0.88 0.88
0.55 0.53 0.53 0.55 0.59 0.58 0.56 0.55 0.52 0.65 0.61 0.60 0.63 0.60 0.64 0.69 0.70 0.71 0.74 0.76 0.77 0.78 0.78 0.78 0.80 0.79 0.78
0.54 0.54 0.54 0.58 0.59 0.57 0.57 0.56 0.54 0.59 0.59 0.53 0.59 0.57 0.62 0.64 0.66 0.66 0.66 0.68 0.69 0.70 0.72 0.73 0.73 0.74 0.73
0.56 0.55 0.57 0.58 0.58 0.58 0.56 0.55 0.55 0.51 0.55 0.45 0.49 0.49 0.52 0.53 0.55 0.56 0.59 0.60 0.61 0.61 0.62 0.63 0.63 0.64 0.64
0.47 0.46 0.46 0.43 0.41 0.41 0.39 0.41 0.36 0.36 0.42 0.37 0.41 0.40 0.44 0.46 0.50 0.53 0.53 0.55 0.56 0.58 0.58 0.58 0.57 0.57 0.56
0.39 0.39 0.40 0.40 0.39 0.38 0.37 0.33 0.33 0.30 0.34 0.29 0.28 0.29 0.27 0.31 0.32 0.33 0.35 0.38 0.42 0.44 0.45 0.46 0.47 0.46 0.45
0.36 0.36 0.36 0.36 0.36 0.34 0.30 0.25 0.21 0.21 0.25 0.24 0.22 0.23 0.22 0.22 0.26 0.28 0.28 0.28 0.29 0.29 0.30 0.31 0.33 0.34 0.33
0.36 0.35 0.34 0.30 0.28 0.28 0.28 0.27 0.28 0.26 0.27 0.25 0.22 0.21 0.19 0.17 0.17 0.21 0.23 0.24 0.25 0.24 0.25 0.27 0.28 0.29 0.30
0.34 0.31 0.29 0.28 0.28 0.26 0.27 0.26 0.25 0.25 0.25 0.24 0.22 0.21 0.19 0.17 0.17 0.18 0.18 0.21 0.24 0.22 0.22 0.21 0.19 0.19 0.17
0.30 0.30 0.30 0.27 0.23 0.22 0.19 0.20 0.18 0.17 0.19 0.18 0.16 0.16 0.14 0.15 0.15 0.14 0.17 0.14 0.16 0.16 0.16 0.16 0.16 0.17 0.17
0.30 0.26 0.20 0.17 0.16 0.17 0.16 0.15 0.13 0.12 0.12 0.14 0.15 0.15 0.15 0.15 0.13 0.15 0.14 0.15 0.16 0.16 0.16 0.15 0.16 0.17 0.18
0.23 0.17 0.16 0.15 0.15 0.16 0.16 0.14 0.12 0.12 0.12 0.14 0.14 0.14 0.14 0.16 0.19 0.16 0.16 0.16 0.18 0.18 0.19 0.17 0.16 0.19 0.21
0.16 0.15 0.15 0.15 0.16 0.16 0.15 0.14 0.13 0.14 0.15 0.16 0.16 0.15 0.12 0.11 0.16 0.20 0.17 0.18 0.18 0.18 0.19 0.19 0.19 0.19 0.22

GFSFLT2_prec_pwat_240.txt.gz
Precipitable_Water
0.62 0.67 0.66 0.65 0.68 0.70 0.70 0.70 0.72 0.72 0.72 0.71 0.69 0.68 0.68 0.68 0.67 0.69 0.72 0.75 0.80 0.84 0.85 0.87 0.85 0.88 0.96
0.62 0.62 0.63 0.66 0.67 0.65 0.67 0.68 0.67 0.68 0.70 0.70 0.70 0.69 0.69 0.68 0.68 0.68 0.69 0.71 0.75 0.78 0.79 0.86 0.88 0.90 0.95
0.57 0.65 0.65 0.65 0.65 0.67 0.66 0.65 0.67 0.68 0.69 0.70 0.68 0.67 0.67 0.68 0.67 0.67 0.68 0.71 0.75 0.77 0.81 0.84 0.86 0.93 1.03
0.60 0.61 0.62 0.64 0.63 0.58 0.58 0.63 0.62 0.65 0.66 0.65 0.64 0.66 0.66 0.66 0.66 0.66 0.68 0.70 0.72 0.75 0.78 0.79 0.81 0.84 0.85
0.57 0.57 0.57 0.57 0.54 0.57 0.56 0.58 0.59 0.62 0.60 0.60 0.62 0.62 0.63 0.64 0.64 0.65 0.66 0.68 0.69 0.73 0.76 0.79 0.81 0.82 0.83
0.55 0.53 0.54 0.55 0.57 0.56 0.56 0.54 0.51 0.63 0.58 0.55 0.59 0.57 0.59 0.61 0.61 0.60 0.62 0.63 0.66 0.68 0.70 0.73 0.74 0.75 0.76
0.55 0.55 0.55 0.57 0.58 0.55 0.55 0.53 0.50 0.53 0.55 0.49 0.53 0.49 0.52 0.51 0.54 0.56 0.56 0.56 0.57 0.59 0.61 0.63 0.65 0.68 0.70
0.53 0.52 0.51 0.51 0.52 0.51 0.49 0.44 0.43 0.42 0.44 0.37 0.40 0.38 0.40 0.43 0.48 0.50 0.51 0.52 0.53 0.55 0.57 0.59 0.61 0.62 0.63
0.47 0.44 0.42 0.41 0.40 0.39 0.37 0.39 0.34 0.34 0.38 0.35 0.32 0.29 0.28 0.28 0.29 0.33 0.35 0.37 0.38 0.39 0.40 0.43 0.46 0.47 0.48
0.38 0.38 0.38 0.38 0.38 0.37 0.35 0.30 0.27 0.22 0.25 0.21 0.22 0.22 0.20 0.25 0.26 0.26 0.26 0.27 0.27 0.27 0.27 0.28 0.29 0.29 0.30
0.38 0.38 0.38 0.38 0.38 0.35 0.31 0.25 0.20 0.20 0.26 0.23 0.20 0.20 0.19 0.18 0.21 0.22 0.22 0.22 0.22 0.22 0.22 0.23 0.23 0.23 0.22
0.38 0.37 0.36 0.34 0.32 0.30 0.28 0.26 0.26 0.23 0.24 0.23 0.20 0.19 0.17 0.15 0.15 0.18 0.19 0.21 0.21 0.19 0.19 0.19 0.18 0.18 0.19
0.36 0.36 0.36 0.34 0.29 0.25 0.25 0.23 0.22 0.21 0.20 0.19 0.17 0.16 0.15 0.13 0.12 0.13 0.13 0.15 0.16 0.15 0.14 0.14 0.14 0.15 0.14
0.37 0.38 0.35 0.25 0.19 0.19 0.17 0.18 0.16 0.15 0.17 0.18 0.16 0.15 0.12 0.13 0.14 0.13 0.14 0.12 0.16 0.16 0.16 0.16 0.17 0.18 0.17
0.38 0.34 0.24 0.19 0.16 0.16 0.16 0.15 0.14 0.14 0.14 0.15 0.16 0.16 0.16 0.16 0.14 0.15 0.15 0.16 0.17 0.17 0.16 0.15 0.16 0.18 0.19
0.33 0.26 0.19 0.17 0.16 0.17 0.16 0.15 0.14 0.15 0.15 0.16 0.16 0.15 0.15 0.16 0.19 0.16 0.16 0.16 0.17 0.18 0.18 0.16 0.15 0.18 0.20
0.21 0.17 0.15 0.14 0.14 0.14 0.15 0.15 0.14 0.15 0.16 0.17 0.16 0.15 0.12 0.11 0.16 0.20 0.17 0.18 0.18 0.17 0.18 0.18 0.17 0.18 0.20

GFSFLT2_prec_pwat_243.txt.gz
Precipitable_Water
0.61 0.65 0.65 0.67 0.69 0.73 0.72 0.71 0.72 0.74 0.75 0.72 0.69 0.67 0.67 0.68 0.68 0.68 0.67 0.66 0.66 0.69 0.72 0.75 0.77 0.80 0.78
0.60 0.62 0.64 0.68 0.68 0.69 0.69 0.70 0.69 0.71 0.71 0.69 0.69 0.69 0.67 0.66 0.66 0.66 0.66 0.65 0.65 0.67 0.70 0.72 0.74 0.76 0.79
0.57 0.65 0.68 0.67 0.67 0.68 0.67 0.67 0.68 0.69 0.69 0.68 0.68 0.67 0.66 0.66 0.65 0.65 0.64 0.63 0.64 0.64 0.67 0.69 0.69 0.72 0.76
0.59 0.61 0.63 0.67 0.66 0.61 0.59 0.63 0.62 0.65 0.66 0.67 0.66 0.65 0.64 0.64 0.63 0.62 0.62 0.61 0.62 0.63 0.64 0.66 0.70 0.72 0.74
0.58 0.58 0.58 0.59 0.57 0.61 0.57 0.59 0.60 0.62 0.61 0.61 0.61 0.60 0.61 0.61 0.60 0.59 0.59 0.59 0.60 0.61 0.62 0.64 0.66 0.69 0.72
0.57 0.55 0.56 0.58 0.59 0.58 0.56 0.54 0.50 0.61 0.57 0.54 0.58 0.53 0.52 0.55 0.55 0.55 0.52 0.52 0.53 0.54 0.56 0.57 0.59 0.62 0.65
0.56 0.56 0.55 0.57 0.58 0.55 0.54 0.50 0.47 0.51 0.52 0.43 0.45 0.42 0.44 0.47 0.49 0.48 0.49 0.49 0.50 0.51 0.51 0.51 0.53 0.54 0.55
0.48 0.46 0.45 0.46 0.49 0.47 0.42 0.41 0.41 0.40 0.42 0.35 0.37 0.37 0.39 0.38 0.41 0.39 0.38 0.37 0.37 0.36 0.36 0.36 0.35 0.36 0.39
0.46 0.44 0.43 0.41 0.40 0.38 0.35 0.36 0.31 0.32 0.36 0.32 0.29 0.26 0.25 0.25 0.26 0.28 0.29 0.29 0.28 0.27 0.27 0.26 0.26 0.24 0.24
0.40 0.41 0.41 0.40 0.39 0.37 0.34 0.29 0.27 0.24 0.28 0.22 0.21 0.21 0.19 0.23 0.24 0.24 0.24 0.24 0.23 0.22 0.21 0.22 0.22 0.21 0.21
0.39 0.39 0.39 0.38 0.37 0.37 0.34 0.29 0.23 0.21 0.24 0.22 0.20 0.20 0.19 0.18 0.20 0.22 0.21 0.20 0.19 0.17 0.17 0.17 0.16 0.16 0.13
0.37 0.37 0.37 0.38 0.39 0.35 0.29 0.25 0.24 0.21 0.22 0.21 0.19 0.17 0.15 0.14 0.14 0.17 0.17 0.17 0.15 0.14 0.15 0.15 0.16 0.16 0.16
0.35 0.37 0.39 0.39 0.34 0.28 0.27 0.23 0.22 0.20 0.19 0.18 0.16 0.16 0.15 0.13 0.12 0.14 0.14 0.15 0.16 0.16 0.16 0.16 0.16 0.16 0.15
0.37 0.39 0.39 0.34 0.27 0.24 0.19 0.20 0.17 0.16 0.18 0.19 0.17 0.16 0.14 0.16 0.16 0.15 0.16 0.14 0.17 0.17 0.17 0.17 0.17 0.18 0.18
0.38 0.36 0.33 0.29 0.24 0.21 0.19 0.17 0.15 0.15 0.16 0.17 0.18 0.18 0.18 0.17 0.15 0.16 0.16 0.16 0.17 0.17 0.17 0.16 0.16 0.18 0.19
0.34 0.28 0.21 0.16 0.15 0.15 0.15 0.14 0.13 0.14 0.14 0.16 0.17 0.16 0.16 0.17 0.19 0.16 0.17 0.17 0.18 0.18 0.18 0.16 0.15 0.18 0.20
0.21 0.15 0.13 0.14 0.14 0.14 0.15 0.15 0.14 0.14 0.15 0.17 0.16 0.15 0.13 0.12 0.17 0.21 0.17 0.19 0.18 0.18 0.18 0.18 0.17 0.18 0.20